| time (UTC) | temp F | wind direction | speed knots | gust knots | rain 1hr in | rain 24hr in | rain mn in | humidity % | barometer mb |
| 20260906234503 | 95 | 198 | 2.6 | 5.2 | 0.00 | 0.00 | 0.00 | 20 | 1016.6 |
| 20260906234024 | 95 | 215 | 2.6 | 7.0 | 0.00 | 0.00 | 0.00 | 20 | 1016.7 |
| 20260906233503 | 94 | 212 | 4.3 | 9.6 | 0.00 | 0.00 | 0.00 | 20 | 1016.7 |
| 20260906233024 | 94 | 210 | 5.2 | 9.6 | 0.00 | 0.00 | 0.00 | 20 | 1016.6 |
| 20260906232503 | 95 | 227 | 4.3 | 6.1 | 0.00 | 0.00 | 0.00 | 20 | 1016.4 |
| 20260906232003 | 95 | 236 | 4.3 | 7.0 | 0.00 | 0.00 | 0.00 | 20 | 1016.4 |
| 20260906231503 | 94 | 210 | 5.2 | 7.0 | 0.00 | 0.00 | 0.00 | 20 | 1016.4 |
| 20260906231003 | 94 | 205 | 6.1 | 7.8 | 0.00 | 0.00 | 0.00 | 20 | 1016.6 |
| 20260906230503 | 94 | 207 | 6.1 | 7.8 | 0.00 | 0.00 | 0.00 | 20 | 1016.6 |
| 20260906230003 | 95 | 131 | 5.2 | 7.0 | 0.00 | 0.00 | 0.00 | 20 | 1016.6 |
| 20260906225503 | 95 | 131 | 5.2 | 7.0 | 0.00 | 0.00 | 0.00 | 20 | 1016.9 |
| 20260906225024 | 95 | 131 | 5.2 | 7.0 | 0.00 | 0.00 | 0.00 | 20 | 1016.8 |
| 20260906224524 | 95 | 131 | 5.2 | 7.0 | 0.00 | 0.00 | 0.00 | 20 | 1016.7 |
| 20260906224003 | 95 | 132 | 5.2 | 7.0 | 0.00 | 0.00 | 0.00 | 20 | 1016.7 |
| 20260906223503 | 95 | 142 | 4.3 | 7.0 | 0.00 | 0.00 | 0.00 | 20 | 1016.8 |
| 20260906223024 | 96 | 175 | 5.2 | 7.0 | 0.00 | 0.00 | 0.00 | 20 | 1016.7 |
| 20260906222524 | 96 | 183 | 6.1 | 8.7 | 0.00 | 0.00 | 0.00 | 20 | 1016.8 |
| 20260906222003 | 96 | 166 | 6.1 | 9.6 | 0.00 | 0.00 | 0.00 | 20 | 1016.8 |
| 20260906221503 | 96 | 115 | 4.3 | 9.6 | 0.00 | 0.00 | 0.00 | 20 | 1016.8 |
| 20260906221003 | 95 | 155 | 5.2 | 8.7 | 0.00 | 0.00 | 0.00 | 19 | 1016.9 |
| 20260906220503 | 96 | 175 | 7.0 | 8.7 | 0.00 | 0.00 | 0.00 | 19 | 1016.9 |
| 20260906220024 | 96 | 193 | 6.1 | 8.7 | 0.00 | 0.00 | 0.00 | 19 | 1017.4 |
| 20260906215524 | 95 | 233 | 5.2 | 8.7 | 0.00 | 0.00 | 0.00 | 19 | 1017.4 |
| 20260906215003 | 95 | 273 | 4.3 | 5.2 | 0.00 | 0.00 | 0.00 | 20 | 1017.5 |
| 20260906214503 | 96 | 271 | 3.5 | 5.2 | 0.00 | 0.00 | 0.00 | 19 | 1017.5 |
| 20260906214003 | 95 | 261 | 3.5 | 3.5 | 0.00 | 0.00 | 0.00 | 19 | 1017.8 |
| 20260906213503 | 95 | 309 | 2.6 | 3.5 | 0.00 | 0.00 | 0.00 | 19 | 1017.6 |
| 20260906213004 | 98 | 334 | 1.7 | 2.6 | 0.00 | 0.00 | 0.00 | 18 | 1017.6 |
| 20260906212524 | 98 | 316 | 1.7 | 2.6 | 0.00 | 0.00 | 0.00 | 18 | 1017.6 |
| 20260906212003 | 96 | 181 | 1.7 | 1.7 | 0.00 | 0.00 | 0.00 | 18 | 1018.0 |
| 20260906211503 | 95 | 198 | 2.6 | 5.2 | 0.00 | 0.00 | 0.00 | 18 | 1018.1 |
| 20260906211003 | 95 | 248 | 3.5 | 5.2 | 0.00 | 0.00 | 0.00 | 18 | 1018.3 |
| 20260906210503 | 96 | 329 | 3.5 | 5.2 | 0.00 | 0.00 | 0.00 | 18 | 1018.3 |
| 20260906210024 | 94 | 325 | 2.6 | 5.2 | 0.00 | 0.00 | 0.00 | 18 | 1018.3 |
| 20260906205524 | 95 | 322 | 2.6 | 3.5 | 0.00 | 0.00 | 0.00 | 17 | 1018.7 |
| 20260906205003 | 95 | 310 | 2.6 | 5.2 | 0.00 | 0.00 | 0.00 | 17 | 1018.5 |
| 20260906204524 | 95 | 292 | 2.6 | 5.2 | 0.00 | 0.00 | 0.00 | 17 | 1018.4 |
| 20260906204003 | 94 | 238 | 0.9 | 1.7 | 0.00 | 0.00 | 0.00 | 17 | 1018.5 |
| 20260906203503 | 94 | 238 | 0.9 | 1.7 | 0.00 | 0.00 | 0.00 | 17 | 1018.7 |
| 20260906203003 | 94 | 238 | 0.9 | 1.7 | 0.00 | 0.00 | 0.00 | 17 | 1018.9 |
| 20260906202503 | 94 | 238 | 0.9 | 1.7 | 0.00 | 0.00 | 0.00 | 17 | 1018.8 |
| 20260906202003 | 94 | 238 | 0.9 | 1.7 | 0.00 | 0.00 | 0.00 | 17 | 1018.9 |
| 20260906201503 | 94 | 238 | 0.9 | 1.7 | 0.00 | 0.00 | 0.00 | 17 | 1019.0 |
| 20260906201003 | 94 | 238 | 0.9 | 1.7 | 0.00 | 0.00 | 0.00 | 17 | 1018.8 |
| 20260906200503 | 94 | 238 | 0.9 | 1.7 | 0.00 | 0.00 | 0.00 | 17 | 1019.0 |
| 20260906200003 | 94 | 238 | 0.9 | 1.7 | 0.00 | 0.00 | 0.00 | 17 | 1019.2 |
| 20260906195503 | 94 | 238 | 0.9 | 1.7 | 0.00 | 0.00 | 0.00 | 17 | 1019.4 |
| 20260906195003 | 94 | 238 | 0.9 | 1.7 | 0.00 | 0.00 | 0.00 | 17 | 1019.4 |
| 20260906194503 | 94 | 239 | 1.7 | 5.2 | 0.00 | 0.00 | 0.00 | 17 | 1019.6 |
| 20260906194004 | 94 | 253 | 2.6 | 6.1 | 0.00 | 0.00 | 0.00 | 17 | 1019.2 |
| 20260906193503 | 94 | 321 | 2.6 | 6.1 | 0.00 | 0.00 | 0.00 | 18 | 1019.6 |
| 20260906193003 | 92 | 341 | 2.6 | 6.1 | 0.00 | 0.00 | 0.00 | 18 | 1019.5 |
| 20260906192503 | 93 | 4 | 1.7 | 5.2 | 0.00 | 0.00 | 0.00 | 18 | 1019.6 |
| 20260906192003 | 92 | 7 | 2.6 | 7.8 | 0.00 | 0.00 | 0.00 | 18 | 1019.6 |
| 20260906191503 | 91 | 5 | 2.6 | 7.8 | 0.00 | 0.00 | 0.00 | 18 | 1019.7 |
| 20260906191004 | 93 | 349 | 2.6 | 7.0 | 0.00 | 0.00 | 0.00 | 19 | 1019.7 |
| 20260906190503 | 93 | 331 | 1.7 | 5.2 | 0.00 | 0.00 | 0.00 | 19 | 1020.1 |
| 20260906190003 | 92 | 332 | 1.7 | 5.2 | 0.00 | 0.00 | 0.00 | 19 | 1020.2 |
| 20260906185503 | 94 | 230 | 1.7 | 5.2 | 0.00 | 0.00 | 0.00 | 18 | 1020.4 |
| 20260906185003 | 92 | 227 | 1.7 | 5.2 | 0.00 | 0.00 | 0.00 | 18 | 1020.4 |
| 20260906184503 | 91 | 297 | 0.9 | 5.2 | 0.00 | 0.00 | 0.00 | 19 | 1020.5 |
| 20260906184003 | 92 | 16 | 0.9 | 2.6 | 0.00 | 0.00 | 0.00 | 19 | 1020.4 |
| 20260906183504 | 91 | 23 | 1.7 | 3.5 | 0.00 | 0.00 | 0.00 | 19 | 1020.4 |
| 20260906183003 | 90 | 42 | 1.7 | 3.5 | 0.00 | 0.00 | 0.00 | 20 | 1020.8 |
| 20260906182503 | 94 | 94 | 1.7 | 6.1 | 0.00 | 0.00 | 0.00 | 18 | 1020.8 |
| 20260906182003 | 93 | 79 | 2.6 | 7.0 | 0.00 | 0.00 | 0.00 | 20 | 1020.9 |
| 20260906181503 | 94 | 71 | 1.7 | 7.0 | 0.00 | 0.00 | 0.00 | 20 | 1020.9 |
| 20260906181024 | 94 | 63 | 1.7 | 3.5 | 0.00 | 0.00 | 0.00 | 21 | 1021.0 |
| 20260906180503 | 93 | 41 | 1.7 | 3.5 | 0.00 | 0.00 | 0.00 | 21 | 1021.1 |
| 20260906180003 | 93 | 44 | 1.7 | 3.5 | 0.00 | 0.00 | 0.00 | 22 | 1021.3 |
| 20260906175524 | 93 | 43 | 1.7 | 5.2 | 0.00 | 0.00 | 0.00 | 23 | 1021.1 |
| 20260906175003 | 90 | 46 | 1.7 | 5.2 | 0.00 | 0.00 | 0.00 | 24 | 1021.0 |
| 20260906174503 | 90 | 35 | 1.7 | 5.2 | 0.00 | 0.00 | 0.00 | 24 | 1021.0 |
| 20260906174003 | 88 | 12 | 2.6 | 6.1 | 0.00 | 0.00 | 0.00 | 25 | 1021.0 |
| 20260906173524 | 89 | 13 | 2.6 | 6.1 | 0.00 | 0.00 | 0.00 | 26 | 1021.3 |
| 20260906173003 | 88 | 9 | 1.7 | 3.5 | 0.00 | 0.00 | 0.00 | 28 | 1021.2 |
| 20260906172524 | 87 | 12 | 1.7 | 5.2 | 0.00 | 0.00 | 0.00 | 28 | 1021.5 |
| 20260906172003 | 87 | 33 | 1.7 | 5.2 | 0.00 | 0.00 | 0.00 | 28 | 1021.7 |
| 20260906171503 | 89 | 55 | 1.7 | 6.1 | 0.00 | 0.00 | 0.00 | 28 | 1021.5 |
| 20260906171024 | 88 | 61 | 1.7 | 6.1 | 0.00 | 0.00 | 0.00 | 28 | 1021.6 |
| 20260906170503 | 90 | 55 | 1.7 | 6.1 | 0.00 | 0.00 | 0.00 | 27 | 1021.7 |
| 20260906170003 | 87 | 29 | 2.6 | 6.1 | 0.00 | 0.00 | 0.00 | 28 | 1021.5 |
| 20260906165525 | 85 | 35 | 2.6 | 6.1 | 0.00 | 0.00 | 0.00 | 29 | 1021.7 |
| 20260906165003 | 87 | 45 | 1.7 | 6.1 | 0.00 | 0.00 | 0.00 | 28 | 1021.7 |
| 20260906164503 | 86 | 21 | 2.6 | 5.2 | 0.00 | 0.00 | 0.00 | 28 | 1021.6 |
| 20260906164003 | 83 | 19 | 2.6 | 6.1 | 0.00 | 0.00 | 0.00 | 30 | 1021.7 |
| 20260906163503 | 83 | 23 | 2.6 | 6.1 | 0.00 | 0.00 | 0.00 | 31 | 1021.8 |
| 20260906163003 | 83 | 23 | 2.6 | 6.1 | 0.00 | 0.00 | 0.00 | 31 | 1021.9 |
| 20260906162503 | 83 | 18 | 2.6 | 5.2 | 0.00 | 0.00 | 0.00 | 31 | 1021.9 |
| 20260906162003 | 83 | 18 | 1.7 | 5.2 | 0.00 | 0.00 | 0.00 | 30 | 1021.7 |
| 20260906161524 | 83 | 34 | 1.7 | 7.0 | 0.00 | 0.00 | 0.00 | 30 | 1021.9 |
| 20260906161003 | 83 | 32 | 2.6 | 7.0 | 0.00 | 0.00 | 0.00 | 31 | 1021.8 |
| 20260906160503 | 83 | 25 | 2.6 | 6.1 | 0.00 | 0.00 | 0.00 | 30 | 1021.9 |
| 20260906160003 | 82 | 36 | 2.6 | 6.1 | 0.00 | 0.00 | 0.00 | 30 | 1022.1 |
| 20260906155504 | 83 | 48 | 2.6 | 6.1 | 0.00 | 0.00 | 0.00 | 29 | 1021.9 |
| 20260906155003 | 84 | 25 | 2.6 | 7.8 | 0.00 | 0.00 | 0.00 | 28 | 1021.9 |
| 20260906154503 | 83 | 26 | 2.6 | 7.8 | 0.00 | 0.00 | 0.00 | 29 | 1022.1 |
| 20260906154003 | 84 | 36 | 2.6 | 7.8 | 0.00 | 0.00 | 0.00 | 29 | 1021.9 |
| 20260906153503 | 82 | 30 | 3.5 | 7.8 | 0.00 | 0.00 | 0.00 | 30 | 1021.9 |
| 20260906153003 | 82 | 24 | 3.5 | 7.8 | 0.00 | 0.00 | 0.00 | 31 | 1021.8 |
| 20260906152503 | 81 | 17 | 4.3 | 7.8 | 0.00 | 0.00 | 0.00 | 31 | 1021.8 |
| 20260906152024 | 80 | 15 | 4.3 | 7.8 | 0.00 | 0.00 | 0.00 | 32 | 1021.7 |
| 20260906151503 | 81 | 9 | 4.3 | 8.7 | 0.00 | 0.00 | 0.00 | 31 | 1021.8 |
| 20260906151024 | 81 | 7 | 4.3 | 8.7 | 0.00 | 0.00 | 0.00 | 31 | 1021.7 |
| 20260906150503 | 80 | 9 | 3.5 | 7.8 | 0.00 | 0.00 | 0.00 | 33 | 1021.7 |
| 20260906150003 | 80 | 9 | 3.5 | 7.8 | 0.00 | 0.00 | 0.00 | 32 | 1021.9 |
| 20260906145503 | 80 | 8 | 2.6 | 6.1 | 0.00 | 0.00 | 0.00 | 31 | 1021.8 |
| 20260906145024 | 79 | 7 | 2.6 | 6.1 | 0.00 | 0.00 | 0.00 | 31 | 1021.8 |
| 20260906144503 | 78 | 2 | 2.6 | 5.2 | 0.00 | 0.00 | 0.00 | 32 | 1021.7 |
| 20260906144003 | 78 | 359 | 1.7 | 5.2 | 0.00 | 0.00 | 0.00 | 32 | 1021.8 |
| 20260906143503 | 77 | 358 | 0.9 | 2.6 | 0.00 | 0.00 | 0.00 | 32 | 1021.9 |
| 20260906143024 | 77 | 355 | 0.9 | 5.2 | 0.00 | 0.00 | 0.00 | 33 | 1021.6 |
| 20260906142503 | 76 | 352 | 0.9 | 5.2 | 0.00 | 0.00 | 0.00 | 33 | 1021.6 |
| 20260906142003 | 77 | 351 | 0.0 | 1.7 | 0.00 | 0.00 | 0.00 | 33 | 1021.8 |
| 20260906141503 | 78 | 351 | 0.0 | 1.7 | 0.00 | 0.00 | 0.00 | 32 | 1021.6 |
| 20260906141003 | 76 | 350 | 0.9 | 1.7 | 0.00 | 0.00 | 0.00 | 35 | 1021.6 |
| 20260906140503 | 75 | 349 | 0.9 | 1.7 | 0.00 | 0.00 | 0.00 | 35 | 1021.9 |
| 20260906140003 | 74 | 347 | 0.9 | 2.6 | 0.00 | 0.00 | 0.00 | 36 | 1021.3 |
| 20260906135503 | 73 | 347 | 0.9 | 2.6 | 0.00 | 0.00 | 0.00 | 37 | 1021.6 |
| 20260906135003 | 73 | 346 | 0.0 | 2.6 | 0.00 | 0.00 | 0.00 | 36 | 1021.3 |
| 20260906134503 | 73 | 346 | 0.9 | 1.7 | 0.00 | 0.00 | 0.00 | 35 | 1021.5 |
| 20260906134003 | 73 | 345 | 0.9 | 1.7 | 0.00 | 0.00 | 0.00 | 35 | 1021.0 |
| 20260906133524 | 72 | 345 | 0.9 | 2.6 | 0.00 | 0.00 | 0.00 | 35 | 1021.1 |
| 20260906133003 | 72 | 345 | 0.9 | 2.6 | 0.00 | 0.00 | 0.00 | 36 | 1021.1 |
| 20260906132503 | 71 | 345 | 0.9 | 3.5 | 0.00 | 0.00 | 0.00 | 36 | 1021.1 |
| 20260906132024 | 71 | 345 | 2.6 | 5.2 | 0.00 | 0.00 | 0.00 | 36 | 1021.1 |
| 20260906131503 | 71 | 345 | 2.6 | 5.2 | 0.00 | 0.00 | 0.00 | 37 | 1021.1 |
| 20260906131003 | 71 | 345 | 1.7 | 3.5 | 0.00 | 0.00 | 0.00 | 37 | 1020.9 |
| 20260906130524 | 70 | 346 | 0.9 | 2.6 | 0.00 | 0.00 | 0.00 | 37 | 1021.0 |
| 20260906130024 | 70 | 346 | 0.9 | 1.7 | 0.00 | 0.00 | 0.00 | 38 | 1021.2 |
| 20260906125503 | 70 | 346 | 1.7 | 3.5 | 0.00 | 0.00 | 0.00 | 39 | 1021.1 |
| 20260906125003 | 70 | 346 | 2.6 | 3.5 | 0.00 | 0.00 | 0.00 | 38 | 1020.9 |
| 20260906124503 | 70 | 346 | 1.7 | 3.5 | 0.00 | 0.00 | 0.00 | 39 | 1020.9 |
| 20260906124003 | 70 | 346 | 1.7 | 2.6 | 0.00 | 0.00 | 0.00 | 40 | 1020.9 |
| 20260906123503 | 71 | 346 | 1.7 | 1.7 | 0.00 | 0.00 | 0.00 | 40 | 1021.0 |
| 20260906123003 | 71 | 346 | 0.9 | 1.7 | 0.00 | 0.00 | 0.00 | 40 | 1020.8 |
| 20260906122503 | 72 | 346 | 0.9 | 1.7 | 0.00 | 0.00 | 0.00 | 38 | 1021.0 |
| 20260906122003 | 71 | 346 | 0.9 | 1.7 | 0.00 | 0.00 | 0.00 | 39 | 1021.1 |
| 20260906121525 | 71 | 346 | 0.9 | 1.7 | 0.00 | 0.00 | 0.00 | 39 | 1020.9 |
| 20260906121003 | 71 | 346 | 0.0 | 0.9 | 0.00 | 0.00 | 0.00 | 40 | 1020.8 |
| 20260906120503 | 70 | 346 | 0.0 | 0.9 | 0.00 | 0.00 | 0.00 | 41 | 1020.9 |
| 20260906120003 | 71 | 0 | 0.0 | 0.0 | 0.00 | 0.00 | 0.00 | 40 | 1020.8 |
| 20260906115503 | 72 | 346 | 0.9 | 1.7 | 0.00 | 0.00 | 0.00 | 39 | 1020.8 |
| 20260906115003 | 72 | 346 | 1.7 | 3.5 | 0.00 | 0.00 | 0.00 | 39 | 1020.6 |
| 20260906114503 | 72 | 346 | 1.7 | 3.5 | 0.00 | 0.00 | 0.00 | 39 | 1020.8 |
| 20260906114003 | 72 | 346 | 0.9 | 2.6 | 0.00 | 0.00 | 0.00 | 39 | 1020.9 |
| 20260906113503 | 72 | 346 | 0.9 | 1.7 | 0.00 | 0.00 | 0.00 | 39 | 1020.9 |
| 20260906113003 | 72 | 346 | 0.9 | 1.7 | 0.00 | 0.00 | 0.00 | 39 | 1020.8 |
| 20260906112504 | 72 | 346 | 0.9 | 1.7 | 0.00 | 0.00 | 0.00 | 39 | 1020.9 |
| 20260906112003 | 73 | 346 | 0.9 | 1.7 | 0.00 | 0.00 | 0.00 | 39 | 1021.1 |
| 20260906111524 | 73 | 346 | 0.0 | 0.9 | 0.00 | 0.00 | 0.00 | 39 | 1021.0 |
| 20260906111003 | 73 | 346 | 0.0 | 0.9 | 0.00 | 0.00 | 0.00 | 39 | 1021.0 |
| 20260906110524 | 73 | 346 | 0.0 | 0.9 | 0.00 | 0.00 | 0.00 | 40 | 1021.0 |
| 20260906110003 | 73 | 346 | 0.0 | 0.9 | 0.00 | 0.00 | 0.00 | 40 | 1020.8 |
| 20260906105503 | 73 | 0 | 0.0 | 0.0 | 0.00 | 0.00 | 0.00 | 41 | 1020.6 |
| 20260906105003 | 73 | 0 | 0.0 | 0.9 | 0.00 | 0.00 | 0.00 | 40 | 1020.8 |
| 20260906104503 | 73 | 345 | 0.0 | 1.7 | 0.00 | 0.00 | 0.00 | 40 | 1020.6 |
| 20260906104024 | 74 | 345 | 0.0 | 1.7 | 0.00 | 0.00 | 0.00 | 39 | 1020.5 |
| 20260906103524 | 74 | 345 | 0.0 | 1.7 | 0.00 | 0.00 | 0.00 | 39 | 1020.6 |
| 20260906103003 | 74 | 345 | 0.0 | 1.7 | 0.00 | 0.00 | 0.00 | 38 | 1020.4 |
| 20260906102503 | 74 | 345 | 0.9 | 1.7 | 0.00 | 0.00 | 0.00 | 35 | 1020.4 |
| 20260906102003 | 74 | 345 | 0.9 | 2.6 | 0.00 | 0.00 | 0.00 | 35 | 1020.4 |
| 20260906101503 | 75 | 345 | 0.9 | 2.6 | 0.00 | 0.00 | 0.00 | 34 | 1020.4 |
| 20260906101003 | 76 | 345 | 0.9 | 1.7 | 0.00 | 0.00 | 0.00 | 34 | 1020.3 |
| 20260906100503 | 76 | 345 | 0.9 | 1.7 | 0.00 | 0.00 | 0.00 | 34 | 1020.5 |
| 20260906100003 | 76 | 345 | 1.7 | 3.5 | 0.00 | 0.00 | 0.00 | 33 | 1020.6 |
| 20260906095503 | 76 | 345 | 1.7 | 3.5 | 0.00 | 0.00 | 0.00 | 33 | 1020.6 |
| 20260906095024 | 76 | 345 | 1.7 | 3.5 | 0.00 | 0.00 | 0.00 | 33 | 1020.3 |
| 20260906094503 | 76 | 342 | 1.7 | 5.2 | 0.00 | 0.00 | 0.00 | 33 | 1020.2 |
| 20260906094003 | 76 | 340 | 2.6 | 6.1 | 0.00 | 0.00 | 0.00 | 33 | 1020.2 |
| 20260906093503 | 77 | 340 | 3.5 | 7.0 | 0.00 | 0.00 | 0.00 | 32 | 1020.4 |
| 20260906093003 | 77 | 339 | 3.5 | 7.0 | 0.00 | 0.00 | 0.00 | 32 | 1020.2 |
| 20260906092503 | 77 | 337 | 4.3 | 7.0 | 0.00 | 0.00 | 0.00 | 32 | 1020.1 |
| 20260906092003 | 77 | 334 | 5.2 | 7.0 | 0.00 | 0.00 | 0.00 | 32 | 1020.1 |
| 20260906091503 | 77 | 333 | 5.2 | 7.0 | 0.00 | 0.00 | 0.00 | 32 | 1020.1 |
| 20260906091003 | 77 | 332 | 5.2 | 7.0 | 0.00 | 0.00 | 0.00 | 32 | 1020.1 |
| 20260906090503 | 77 | 330 | 5.2 | 6.1 | 0.00 | 0.00 | 0.00 | 33 | 1020.1 |
| 20260906090003 | 76 | 330 | 4.3 | 6.1 | 0.00 | 0.00 | 0.00 | 33 | 1019.8 |
| 20260906085503 | 76 | 331 | 4.3 | 6.1 | 0.00 | 0.00 | 0.00 | 33 | 1020.1 |
| 20260906085003 | 77 | 333 | 3.5 | 6.1 | 0.00 | 0.00 | 0.00 | 33 | 1019.9 |
| 20260906084503 | 76 | 333 | 3.5 | 5.2 | 0.00 | 0.00 | 0.00 | 33 | 1020.1 |
| 20260906084003 | 76 | 335 | 4.3 | 5.2 | 0.00 | 0.00 | 0.00 | 34 | 1020.1 |
| 20260906083503 | 77 | 337 | 3.5 | 5.2 | 0.00 | 0.00 | 0.00 | 34 | 1020.1 |
| 20260906083024 | 76 | 338 | 3.5 | 5.2 | 0.00 | 0.00 | 0.00 | 34 | 1020.3 |
| 20260906082503 | 76 | 339 | 3.5 | 5.2 | 0.00 | 0.00 | 0.00 | 34 | 1020.3 |
| 20260906082003 | 76 | 340 | 3.5 | 5.2 | 0.00 | 0.00 | 0.00 | 34 | 1020.1 |
| 20260906081503 | 76 | 340 | 2.6 | 5.2 | 0.00 | 0.00 | 0.00 | 34 | 1020.4 |
| 20260906081003 | 77 | 340 | 3.5 | 5.2 | 0.00 | 0.00 | 0.00 | 34 | 1020.2 |
| 20260906080503 | 77 | 339 | 3.5 | 5.2 | 0.00 | 0.00 | 0.00 | 34 | 1020.4 |
| 20260906080003 | 76 | 338 | 4.3 | 6.1 | 0.00 | 0.00 | 0.00 | 34 | 1020.5 |
| 20260906075503 | 76 | 339 | 4.3 | 7.0 | 0.00 | 0.00 | 0.00 | 34 | 1020.5 |
| 20260906075024 | 77 | 338 | 5.2 | 7.0 | 0.00 | 0.00 | 0.00 | 34 | 1020.8 |
| 20260906074524 | 77 | 334 | 5.2 | 6.1 | 0.00 | 0.00 | 0.00 | 33 | 1020.8 |
| 20260906074003 | 77 | 327 | 4.3 | 6.1 | 0.00 | 0.00 | 0.00 | 34 | 1020.6 |
| 20260906073503 | 76 | 317 | 3.5 | 6.1 | 0.00 | 0.00 | 0.00 | 34 | 1020.5 |
| 20260906073003 | 77 | 311 | 3.5 | 6.1 | 0.00 | 0.00 | 0.00 | 34 | 1020.5 |
| 20260906072503 | 77 | 310 | 3.5 | 6.1 | 0.00 | 0.00 | 0.00 | 34 | 1020.6 |
| 20260906072003 | 77 | 305 | 3.5 | 6.1 | 0.00 | 0.00 | 0.00 | 33 | 1020.5 |
| 20260906071503 | 76 | 294 | 3.5 | 5.2 | 0.00 | 0.00 | 0.00 | 34 | 1020.4 |
| 20260906071003 | 77 | 284 | 1.7 | 3.5 | 0.00 | 0.00 | 0.00 | 34 | 1020.5 |
| 20260906070503 | 77 | 280 | 0.9 | 2.6 | 0.00 | 0.00 | 0.00 | 33 | 1020.9 |
| 20260906070003 | 77 | 275 | 1.7 | 3.5 | 0.00 | 0.00 | 0.00 | 33 | 1020.8 |
| 20260906065503 | 77 | 269 | 1.7 | 3.5 | 0.00 | 0.00 | 0.00 | 34 | 1020.5 |
| 20260906065003 | 77 | 260 | 0.9 | 2.6 | 0.00 | 0.00 | 0.00 | 33 | 1020.6 |
| 20260906064524 | 78 | 253 | 2.6 | 3.5 | 0.00 | 0.00 | 0.00 | 33 | 1020.8 |
| 20260906064003 | 78 | 225 | 2.6 | 3.5 | 0.00 | 0.00 | 0.00 | 33 | 1020.5 |
| 20260906063524 | 78 | 210 | 1.7 | 5.2 | 0.00 | 0.00 | 0.00 | 33 | 1020.6 |
| 20260906063003 | 79 | 291 | 0.9 | 5.2 | 0.00 | 0.00 | 0.00 | 32 | 1020.8 |
| 20260906062503 | 79 | 353 | 0.9 | 1.7 | 0.00 | 0.00 | 0.00 | 32 | 1020.6 |
| 20260906062003 | 79 | 1 | 0.9 | 5.2 | 0.00 | 0.00 | 0.00 | 31 | 1020.5 |
| 20260906061503 | 80 | 4 | 1.7 | 6.1 | 0.00 | 0.00 | 0.00 | 31 | 1020.5 |
| 20260906061003 | 80 | 8 | 0.9 | 6.1 | 0.00 | 0.00 | 0.00 | 31 | 1020.9 |
| 20260906060503 | 79 | 17 | 0.9 | 2.6 | 0.00 | 0.00 | 0.00 | 32 | 1020.4 |
| 20260906060003 | 78 | 15 | 0.9 | 2.6 | 0.00 | 0.00 | 0.00 | 33 | 1020.5 |
| 20260906055524 | 78 | 10 | 1.7 | 2.6 | 0.00 | 0.00 | 0.00 | 32 | 1020.3 |
| 20260906055003 | 78 | 357 | 0.9 | 2.6 | 0.00 | 0.00 | 0.00 | 32 | 1020.2 |
| 20260906054503 | 79 | 349 | 0.9 | 1.7 | 0.00 | 0.00 | 0.00 | 32 | 1020.2 |
| 20260906054003 | 79 | 347 | 2.6 | 6.1 | 0.00 | 0.00 | 0.00 | 31 | 1020.1 |
| 20260906053503 | 80 | 346 | 3.5 | 7.8 | 0.00 | 0.00 | 0.00 | 31 | 1019.9 |
| 20260906053003 | 80 | 343 | 4.3 | 8.7 | 0.00 | 0.00 | 0.00 | 31 | 1020.1 |
| 20260906052503 | 80 | 343 | 5.2 | 9.6 | 0.00 | 0.00 | 0.00 | 31 | 1020.1 |
| 20260906052003 | 80 | 345 | 6.1 | 9.6 | 0.00 | 0.00 | 0.00 | 31 | 1020.1 |
| 20260906051503 | 80 | 346 | 6.1 | 9.6 | 0.00 | 0.00 | 0.00 | 31 | 1019.7 |
| 20260906051003 | 80 | 346 | 6.1 | 9.6 | 0.00 | 0.00 | 0.00 | 31 | 1020.1 |
| 20260906050503 | 80 | 346 | 6.1 | 12.2 | 0.00 | 0.00 | 0.00 | 31 | 1019.8 |
| 20260906050003 | 80 | 346 | 6.1 | 12.2 | 0.00 | 0.00 | 0.00 | 30 | 1019.8 |
| 20260906045503 | 80 | 346 | 5.2 | 8.7 | 0.00 | 0.00 | 0.00 | 31 | 1019.8 |
| 20260906045025 | 80 | 346 | 5.2 | 8.7 | 0.00 | 0.00 | 0.00 | 31 | 1019.9 |
| 20260906044503 | 80 | 344 | 5.2 | 8.7 | 0.00 | 0.00 | 0.00 | 31 | 1020.3 |
| 20260906044024 | 80 | 343 | 6.1 | 9.6 | 0.00 | 0.00 | 0.00 | 31 | 1020.1 |
| 20260906043503 | 80 | 344 | 6.1 | 9.6 | 0.00 | 0.00 | 0.00 | 31 | 1020.1 |
| 20260906043003 | 80 | 343 | 6.1 | 9.6 | 0.00 | 0.00 | 0.00 | 31 | 1020.1 |
| 20260906042503 | 80 | 344 | 6.1 | 9.6 | 0.00 | 0.00 | 0.00 | 31 | 1019.7 |
| 20260906042003 | 80 | 345 | 6.1 | 7.8 | 0.00 | 0.00 | 0.00 | 31 | 1019.9 |
| 20260906041503 | 80 | 344 | 6.1 | 7.8 | 0.00 | 0.00 | 0.00 | 30 | 1019.7 |
| 20260906041003 | 80 | 343 | 6.1 | 7.8 | 0.00 | 0.00 | 0.00 | 31 | 1019.7 |
| 20260906040503 | 80 | 341 | 6.1 | 7.8 | 0.00 | 0.00 | 0.00 | 30 | 1019.8 |
| 20260906040024 | 80 | 341 | 6.1 | 7.8 | 0.00 | 0.00 | 0.00 | 30 | 1019.9 |
| 20260906035503 | 80 | 343 | 5.2 | 7.0 | 0.00 | 0.00 | 0.00 | 30 | 1019.8 |
| 20260906035003 | 80 | 342 | 5.2 | 7.8 | 0.00 | 0.00 | 0.00 | 30 | 1019.9 |
| 20260906034503 | 81 | 340 | 5.2 | 7.8 | 0.00 | 0.00 | 0.00 | 30 | 1020.2 |
| 20260906034004 | 81 | 339 | 5.2 | 7.0 | 0.00 | 0.00 | 0.00 | 30 | 1020.2 |
| 20260906033503 | 81 | 337 | 5.2 | 7.0 | 0.00 | 0.00 | 0.00 | 30 | 1019.8 |
| 20260906033003 | 81 | 337 | 5.2 | 7.0 | 0.00 | 0.00 | 0.00 | 30 | 1020.1 |
| 20260906032524 | 82 | 339 | 5.2 | 7.0 | 0.00 | 0.00 | 0.00 | 30 | 1019.5 |
| 20260906032003 | 82 | 339 | 5.2 | 7.0 | 0.00 | 0.00 | 0.00 | 29 | 1019.4 |
| 20260906031503 | 82 | 339 | 5.2 | 7.0 | 0.00 | 0.00 | 0.00 | 29 | 1019.5 |
| 20260906031003 | 82 | 339 | 5.2 | 7.8 | 0.00 | 0.00 | 0.00 | 29 | 1019.4 |
| 20260906030524 | 82 | 338 | 5.2 | 7.8 | 0.00 | 0.00 | 0.00 | 29 | 1019.2 |
| 20260906030003 | 83 | 339 | 5.2 | 7.0 | 0.00 | 0.00 | 0.00 | 29 | 1019.1 |
| 20260906025503 | 83 | 342 | 5.2 | 7.0 | 0.00 | 0.00 | 0.00 | 28 | 1019.2 |
| 20260906025003 | 84 | 345 | 5.2 | 7.8 | 0.00 | 0.00 | 0.00 | 28 | 1019.4 |
| 20260906024503 | 84 | 344 | 5.2 | 8.7 | 0.00 | 0.00 | 0.00 | 28 | 1019.1 |
| 20260906024003 | 84 | 345 | 6.1 | 9.6 | 0.00 | 0.00 | 0.00 | 28 | 1019.0 |
| 20260906023524 | 85 | 345 | 6.1 | 9.6 | 0.00 | 0.00 | 0.00 | 28 | 1019.1 |
| 20260906023003 | 85 | 338 | 6.1 | 8.7 | 0.00 | 0.00 | 0.00 | 28 | 1018.9 |
| 20260906022503 | 85 | 334 | 6.1 | 7.8 | 0.00 | 0.00 | 0.00 | 28 | 1018.9 |
| 20260906022024 | 86 | 331 | 5.2 | 7.8 | 0.00 | 0.00 | 0.00 | 28 | 1018.9 |
| 20260906021503 | 86 | 331 | 4.3 | 7.0 | 0.00 | 0.00 | 0.00 | 28 | 1019.0 |
| 20260906021003 | 86 | 336 | 3.5 | 5.2 | 0.00 | 0.00 | 0.00 | 28 | 1019.1 |
| 20260906020503 | 86 | 339 | 4.3 | 6.1 | 0.00 | 0.00 | 0.00 | 28 | 1018.9 |
| 20260906020003 | 87 | 336 | 5.2 | 7.8 | 0.00 | 0.00 | 0.00 | 28 | 1018.8 |
| 20260906015503 | 87 | 316 | 4.3 | 7.8 | 0.00 | 0.00 | 0.00 | 28 | 1018.8 |
| 20260906015004 | 87 | 278 | 2.6 | 3.5 | 0.00 | 0.00 | 0.00 | 30 | 1018.8 |
| 20260906014503 | 87 | 269 | 1.7 | 2.6 | 0.00 | 0.00 | 0.00 | 30 | 1018.3 |
| 20260906014003 | 87 | 268 | 1.7 | 2.6 | 0.00 | 0.00 | 0.00 | 30 | 1018.4 |
| 20260906013503 | 87 | 271 | 2.6 | 3.5 | 0.00 | 0.00 | 0.00 | 29 | 1018.4 |
| 20260906013003 | 88 | 276 | 2.6 | 3.5 | 0.00 | 0.00 | 0.00 | 29 | 1018.7 |
| 20260906012503 | 88 | 291 | 2.6 | 3.5 | 0.00 | 0.00 | 0.00 | 29 | 1018.4 |
| 20260906012003 | 89 | 305 | 2.6 | 3.5 | 0.00 | 0.00 | 0.00 | 29 | 1018.5 |
| 20260906011504 | 89 | 311 | 3.5 | 5.2 | 0.00 | 0.00 | 0.00 | 28 | 1018.5 |
| 20260906011003 | 89 | 314 | 2.6 | 5.2 | 0.00 | 0.00 | 0.00 | 28 | 1018.5 |
| 20260906010503 | 89 | 312 | 2.6 | 5.2 | 0.00 | 0.00 | 0.00 | 28 | 1018.5 |
| 20260906010024 | 89 | 313 | 2.6 | 5.2 | 0.00 | 0.00 | 0.00 | 28 | 1018.7 |
| 20260906005503 | 89 | 326 | 2.6 | 6.1 | 0.00 | 0.00 | 0.00 | 28 | 1018.9 |
| 20260906005003 | 90 | 327 | 5.2 | 7.8 | 0.00 | 0.00 | 0.00 | 27 | 1018.8 |
| 20260906004524 | 90 | 327 | 5.2 | 7.8 | 0.00 | 0.00 | 0.00 | 27 | 1018.7 |
| 20260906004003 | 90 | 323 | 5.2 | 8.7 | 0.00 | 0.00 | 0.00 | 27 | 1018.8 |
| 20260906003503 | 90 | 318 | 6.1 | 8.7 | 0.00 | 0.00 | 0.00 | 27 | 1018.7 |
| 20260906003024 | 91 | 322 | 5.2 | 7.8 | 0.00 | 0.00 | 0.00 | 26 | 1018.4 |
| 20260906002524 | 90 | 335 | 6.1 | 8.7 | 0.00 | 0.00 | 0.00 | 27 | 1018.4 |
| 20260906002024 | 90 | 334 | 6.1 | 8.7 | 0.00 | 0.00 | 0.00 | 27 | 1018.5 |
| 20260906001503 | 91 | 331 | 5.2 | 7.8 | 0.00 | 0.00 | 0.00 | 26 | 1018.4 |
| 20260906001004 | 91 | 339 | 4.3 | 8.7 | 0.00 | 0.00 | 0.00 | 26 | 1018.3 |
| 20260906000503 | 92 | 341 | 5.2 | 8.7 | 0.00 | 0.00 | 0.00 | 26 | 1018.5 |
| 20260906000024 | 91 | 327 | 4.3 | 8.7 | 0.00 | 0.00 | 0.00 | 26 | 1018.5 |
| 20260905235503 | 91 | 324 | 3.5 | 6.1 | 0.00 | 0.00 | 0.00 | 26 | 1018.3 |
| 20260905235003 | 92 | 345 | 2.6 | 6.1 | 0.00 | 0.00 | 0.00 | 26 | 1018.4 |